Location: Arbon
(43.0005°N, 0.7472°E)
Time: 11:18:48
(UTC+00:00)

Cosmos 2369 Rocket - Pass Details

Date: 22 April 2026
Orbit: 829 x 850 km, 71.0° (Epoch: 13 May)

Event Time Altitude Azimuth Distance (km) Brightness Sun altitude
Rises 21:48:25 0° 326° (NW) 3,379 6.6 -27.4°
Reaches altitude 10° 21:51:06 10° 316° (NW) 2,441 5.5 -27.7°
Maximum altitude 21:55:54 31° 256° (WSW) 1,435 3.5 -28.2°
Enters shadow 21:56:51 29° 238° (WSW) 1,486 3.4 -28.3°
